Weather History for Melbourne, FL

Change the Weather History Date:

Saturday, October 26, 2013

  Actual Average Record
Temperature  
Mean Temperature 70 °F 74 °F  
Max Temperature 81 °F 82 °F 90 °F (1942)
Min Temperature 58 °F 65 °F 47 °F (2005)
Degree Days  
Heating Degree Days 0 0  
Month to date heating degree days 0 0  
Since 1 July heating degree days 0 0  
Cooling Degree Days 5 9  
Month to date cooling degree days 334 303  
Year to date cooling degree days 3280 2995  
Growing Degree Days 18 (Base 50)    
Moisture  
Dew Point 56 °F    
Average Humidity 66    
Maximum Humidity 93    
Minimum Humidity 39    
Precipitation  
Precipitation 0.00 in 0.12 in 1.69 in (1952)
Month to date precipitation 0.26 4.48  
Year to date precipitation 35.99 45.97  
Sea Level Pressure  
Sea Level Pressure 30.15 in    
Wind  
Wind Speed 8 mph (North)    
Max Wind Speed 14 mph    
Max Gust Speed 17 mph    
Visibility 10 miles    
Events      
T = Trace of Precipitation, MM = Missing Value Source: NWS Daily Summary

Daily Weather History Graph

Daily Weather History Graph

Search for Another Location

Airport:

Trip Planner

Search our weather history database for the weather conditions in past years. The results will help you decide how hot, cold, wet, or windy it might be!

Date:

Astronomy

Oct. 26, 2013 Rise Set
Actual Time 7:29 AM EDT 6:42 PM EDT
Civil Twilight 7:05 AM EDT 7:06 PM EDT
Nautical Twilight 6:38 AM EDT 7:34 PM EDT
Astronomical Twilight 6:10 AM EDT 8:01 PM EDT
Moon 12:08 AM EDT (10/26) 1:41 PM EDT (10/26)
Length of Visible Light 12h 00m
Length of Day
11h 12m
Waning Gibbous, 53% of the Moon is Illuminated
Oct 26
Waning Gibbous
Oct 26
Last Quarter
Nov 3
New
Nov 10
First Quarter
Nov 17
Full

Hourly Weather History & Observations

Time (EDT) Temp. Dew Point Humidity Pressure Visibility Wind Dir Wind Speed Gust Speed Precip Events Conditions
12:53 AM 70.0 °F 55.9 °F 61% 30.19 in 10.0 mi NNE 9.2 mph - N/A   Clear
1:53 AM 70.0 °F 55.9 °F 61% 30.17 in 10.0 mi NNE 8.1 mph - N/A   Clear
2:53 AM 68.0 °F 55.9 °F 65% 30.15 in 10.0 mi NNE 9.2 mph - N/A   Clear
3:53 AM 66.9 °F 55.0 °F 66% 30.14 in 10.0 mi North 8.1 mph - N/A   Clear
4:53 AM 61.0 °F 55.9 °F 83% 30.14 in 10.0 mi NW 3.5 mph - N/A   Clear
5:53 AM 59.0 °F 55.0 °F 87% 30.14 in 10.0 mi WNW 4.6 mph - N/A   Clear
6:53 AM 57.9 °F 55.0 °F 90% 30.15 in 10.0 mi WNW 4.6 mph - N/A   Clear
7:53 AM 57.9 °F 55.9 °F 93% 30.17 in 10.0 mi NNW 3.5 mph - N/A   Clear
8:53 AM 66.0 °F 59.0 °F 78% 30.19 in 10.0 mi NNW 4.6 mph - N/A   Clear
9:53 AM 73.9 °F 57.9 °F 57% 30.20 in 10.0 mi North 8.1 mph - N/A   Clear
10:53 AM 75.0 °F 57.9 °F 55% 30.19 in 10.0 mi North 9.2 mph - N/A   Clear
11:53 AM 77.0 °F 57.9 °F 52% 30.19 in 10.0 mi NNE 10.4 mph - N/A   Clear
12:53 PM 77.0 °F 57.0 °F 50% 30.17 in 10.0 mi North 9.2 mph - N/A   Clear
1:53 PM 78.1 °F 53.1 °F 42% 30.14 in 10.0 mi ENE 11.5 mph - N/A   Clear
2:53 PM 79.0 °F 53.1 °F 40% 30.12 in 10.0 mi ENE 11.5 mph - N/A   Clear
3:53 PM 79.0 °F 52.0 °F 39% 30.11 in 10.0 mi NE 12.7 mph - N/A   Clear
4:53 PM 78.1 °F 51.1 °F 39% 30.10 in 10.0 mi NE 9.2 mph - N/A   Clear
5:53 PM 75.0 °F 55.9 °F 51% 30.10 in 10.0 mi NNE 10.4 mph - N/A   Clear
6:53 PM 71.1 °F 55.0 °F 57% 30.10 in 10.0 mi NNE 10.4 mph - N/A   Clear
7:53 PM 70.0 °F 55.9 °F 61% 30.11 in 10.0 mi NNE 6.9 mph - N/A   Clear
8:53 PM 68.0 °F 55.9 °F 65% 30.13 in 10.0 mi North 4.6 mph - N/A   Clear
9:53 PM 63.0 °F 55.9 °F 78% 30.14 in 10.0 mi NW 3.5 mph - N/A   Clear
10:53 PM 63.0 °F 57.0 °F 81% 30.14 in 10.0 mi NNW 5.8 mph - N/A   Clear
11:53 PM 64.0 °F 57.9 °F 80% 30.12 in 10.0 mi North 5.8 mph - N/A   Clear